Hvidovre, Denmark
Current Conditions -  °F | °C
As of 9:20 AM on Sunday 23 Nov 2014 (Local Time) from EKCH Reporting Station
Broken Clouds Broken Clouds  
Wind Chill: 36°   Ceiling: 1700
Heat Index: 45°   Visibility: 6mi
Dew Point: 41°   Wind: 23mph
Humidity: 87%   Direction: 140°SE
Pressure: 30.24"   Gusts: NA
Location:  55.66°N, 12.47°E
Report Text: EKCH 230820Z 14020KT 9999 FEW012 BKN017 07/05 Q1024 TEMPOBKN012
Loading
Personal Weather Stations






























Interactive Weather Map New forecast layout! Learn more

10-Day Weather Forecast

Advertisements
Track Severe Weather on mobile